STARLINK-33752, 63580

Orbit data source: Space-Track

STARLINK-33752, 63580 is a payload satellite in LEO that was launched on Mon, 14 Apr 2025 UTC via an FALCON 9 launch vehicle from the Air Force Eastern Test Range (AFETR). Payload-class satellites include a variety of spacecraft equipped with specific instruments for various scientific and technological missions. These include communications satellites like Starlink; space stations such as the ISS; scientific satellites like the Hubble; Earth observation satellites from companies like Planet Labs, Umbra, and HawkEye 360; GPS; miniature CubeSats for education and research; and military/defense satellites.

Loading next visibility...
Identifier
63580, 2025-076M
Orbit
LEO
Last TLE update
11 hours ago
Origin
Manufacturer
SpaceX/Seattle
Mission
Operational spacecraft
Bus & Motor
STARLINK V2MO, Unknown motor
Mass
575 kg wet, ~530 kg dry
Launch date (UTC)
2025-04-14 (1 month ago)
Launch vehicle
FALCON 9
Launch site
Air Force Eastern Test Range (AFETR)
Object type
Payload
Rocket body
Debris
Shape & HBR
Unknown
Radar Cross Section
Large (>1 m²)

Expand to show TLE details & history

TLE from 11 hours ago
0 STARLINK-33752
1 63580U 25076M   25140.25002315 -.00015681  00000-0 -36887-3 0  9990
2 63580  42.9996 181.7045 0001362 270.0043 320.1958 15.40701650  6796
Epoch: 2025-05-20T06:00Z
TLE epoch observation values (Epoch: 2025-05-20T06:00:02Z)
Latitude
-31.77036°
Longitude
74.87973°
Altitude
452.026 km
Speed
7.642 km/s
True Right ascension
02h 52m 09s
True Declination
-31° 36' 35"
Sunlit
Object was in daylight at epoch
Visualization orbit readout
Latitude
-34.25768°
Longitude
164.27334°
Altitude
452.98 km
Speed
7.642 km/s
Apparent Right ascension
11h 14m 44s
Apparent Declination
-44° 07' 51"
Sunlit
Object is in daylight
Visualization observer readout
Local Sidereal Time
02:06:48
Azimuth
111.948° ESE
Elevation
-58.134°
Doppler factor
1
Orbital elements
Apogee altitude
446.923 km
Perigee altitude
445.064 km
Semi-major axis
6,824.131 km
Eccentricity
0.00014
Inclination
42.9996°
RAAN
181.7045°
Arg. of periapsis
270.0043°
True anomaly
Unknown
Mean anomaly
320.1958°
Eccentric anomaly
Unknown
Mean motion
3.8501 °/min
Orbital period
93.5 mins
BSTAR
-0.00036887
Loading maneuver chart data...
Loading SW <> Apogee altitude chart data...
Loading historical data...
Loading historical data...
Loading historical data...
Loading historical data...
Loading historical data...
Loading historical data...
Loading historical data...

STARLINK-33752 Visibility forecast

Observer location: undefined°, undefined°

Span
Click to sort rows by Start time (UTC) header in descending order
Start Az.
Max El. time (UTC)
Max El. Az.
Max El.
End time (UTC)
End Az.
6 mins2025-05-21 06:06:50.197Z224.01° SW2025-05-21 06:09:50.197Z149.82° SSE34.964°2025-05-21 06:12:50.197Z81.324° E
5 mins2025-05-21 07:45:50.197Z276.048° WNW2025-05-21 07:47:50.197Z350.987° N40.644°2025-05-21 07:50:50.197Z69.076° E
5 mins2025-05-21 09:23:50.197Z294.304° NW2025-05-21 09:25:50.197Z343.579° N38.111°2025-05-21 09:28:50.197Z83.148° E
4 mins2025-05-21 11:02:50.197Z269.564° W2025-05-21 11:03:50.197Z237.716° WSW37.967°2025-05-21 11:06:50.197Z129.396° SE
|